Weather History for Greenville, MS

Change the Weather History Date:

Tuesday, July 16, 2013

  Actual Average Record
Temperature  
Mean Temperature 83 °F 82 °F  
Max Temperature 91 °F 92 °F 101 °F (1925)
Min Temperature 74 °F 72 °F 57 °F (1967)
Cooling Degree Days 18 17  
Month to date cooling degree days 240 270  
Year to date cooling degree days 982 1012  
Since 1 June cooling degree days 699 690  
Growing Degree Days 32 (Base 50)    
Moisture  
Dew Point 72 °F    
Average Humidity 75    
Maximum Humidity 94    
Minimum Humidity 55    
Precipitation  
Precipitation 0.00 in 0.13 in 4.58 in (1950)
Month to date precipitation 1.12 2.25  
Year to date precipitation 27.33 30.55  
Sea Level Pressure  
Sea Level Pressure 30.20 in    
Wind  
Wind Speed 7 mph (East)    
Max Wind Speed 15 mph    
Max Gust Speed 18 mph    
Visibility 10 miles    
Events      
T = Trace of Precipitation, MM = Missing Value Source: NWS Daily Summary

Daily Weather History Graph

Daily Weather History Graph

Search for Another Location

Airport:

Trip Planner

Search our weather history database for the weather conditions in past years. The results will help you decide how hot, cold, wet, or windy it might be!

Date:

Astronomy

Jul. 16, 2013 Rise Set
Actual Time 6:05 AM CDT 8:13 PM CDT
Civil Twilight 5:37 AM CDT 8:42 PM CDT
Nautical Twilight 5:03 AM CDT 9:16 PM CDT
Astronomical Twilight 4:26 AM CDT 9:53 PM CDT
Moon 2:02 PM CDT (7/16) 12:26 AM CDT (7/16)
Length of Visible Light 15h 04m
Length of Day
14h 08m
First Quarter, 56% of the Moon is Illuminated
Jul 16
First Quarter
Jul 22
Full
Jul 29
Last Quarter
Aug 6
New
Aug 14
First Quarter

Hourly Weather History & Observations

Time (CDT) Temp. Heat Index Dew Point Humidity Pressure Visibility Wind Dir Wind Speed Gust Speed Precip Events Conditions
12:53 AM 77.0 °F - 73.0 °F 88% 30.16 in 10.0 mi ESE 4.6 mph - N/A   Clear
1:53 AM 77.0 °F - 73.0 °F 88% 30.16 in 10.0 mi ESE 4.6 mph - N/A   Clear
2:53 AM 75.9 °F - 73.0 °F 91% 30.17 in 10.0 mi East 4.6 mph - N/A   Clear
3:53 AM 75.9 °F - 73.0 °F 91% 30.17 in 10.0 mi East 3.5 mph - N/A   Clear
4:53 AM 75.0 °F - 72.0 °F 90% 30.17 in 10.0 mi East 4.6 mph - N/A   Clear
5:53 AM 75.0 °F - 72.0 °F 90% 30.18 in 9.0 mi ENE 4.6 mph - N/A   Clear
6:53 AM 75.0 °F - 72.0 °F 90% 30.19 in 9.0 mi ENE 3.5 mph - N/A   Clear
7:53 AM 78.1 °F - 72.0 °F 81% 30.21 in 10.0 mi East 10.4 mph - N/A   Clear
8:53 AM 80.1 °F 83.8 °F 72.0 °F 76% 30.23 in 10.0 mi East 12.7 mph - N/A   Clear
9:53 AM 84.0 °F 90.2 °F 73.0 °F 69% 30.23 in 10.0 mi ESE 9.2 mph - N/A   Clear
10:53 AM 84.9 °F 91.4 °F 73.0 °F 67% 30.23 in 10.0 mi ESE 9.2 mph - N/A   Partly Cloudy
11:34 AM 86.0 °F 93.4 °F 73.4 °F 66% 30.21 in 10.0 mi ESE 9.2 mph - N/A   Mostly Cloudy
11:41 AM 84.2 °F 90.9 °F 73.4 °F 70% 30.21 in 10.0 mi ESE 8.1 mph - N/A   Scattered Clouds
11:53 AM 84.9 °F 91.4 °F 73.0 °F 67% 30.23 in 10.0 mi ESE 10.4 mph - N/A   Mostly Cloudy
12:39 PM 84.2 °F 90.9 °F 73.4 °F 70% 30.21 in 10.0 mi ESE 6.9 mph - N/A   Mostly Cloudy
12:53 PM 87.1 °F 94.5 °F 73.0 °F 63% 30.23 in 10.0 mi ESE 9.2 mph - N/A   Mostly Cloudy
1:02 PM 87.8 °F 93.8 °F 71.6 °F 58% 30.21 in 10.0 mi East 9.2 mph - N/A   Mostly Cloudy
1:53 PM 87.1 °F 93.6 °F 72.0 °F 61% 30.21 in 10.0 mi East 8.1 mph - N/A   Mostly Cloudy
2:53 PM 90.0 °F 96.4 °F 71.1 °F 54% 30.20 in 10.0 mi East 12.7 mph 18.4 mph N/A   Partly Cloudy
3:53 PM 90.0 °F 96.9 °F 72.0 °F 55% 30.19 in 10.0 mi East 9.2 mph - N/A   Scattered Clouds
4:53 PM 88.0 °F 92.1 °F 69.1 °F 53% 30.17 in 10.0 mi ESE 12.7 mph - N/A   Scattered Clouds
5:53 PM 87.1 °F 92.0 °F 70.0 °F 57% 30.17 in 10.0 mi East 8.1 mph - N/A   Clear
6:53 PM 86.0 °F 90.7 °F 70.0 °F 59% 30.17 in 10.0 mi East 5.8 mph - N/A   Clear
7:53 PM 84.0 °F 88.4 °F 70.0 °F 63% 30.18 in 10.0 mi ENE 5.8 mph - N/A   Clear
8:53 PM 81.0 °F 84.4 °F 70.0 °F 69% 30.21 in 10.0 mi ENE 3.5 mph - N/A   Clear
9:53 PM 81.0 °F 84.4 °F 70.0 °F 69% 30.22 in 10.0 mi East 4.6 mph - N/A   Clear
10:53 PM 80.1 °F 83.2 °F 70.0 °F 71% 30.25 in 10.0 mi ESE 4.6 mph - N/A   Clear
11:53 PM 77.0 °F - 71.1 °F 82% 30.25 in 10.0 mi East 3.5 mph - N/A   Clear